Terug naar catalogus

STARLINK-5859

ActiefCommunicatieVLEO
NORAD 55915·PAYLOAD·🇺🇸 United States

Gelanceerd Mar 17, 2023 vanaf Vandenberg Space Force Base

Loading…

Volgende Passages (komende 24 uur)

TLE

VersSource: CelesTrak SupGP

Epoch: Sep 14, 2026, 20:47 UTC

1 55915C 23037B   26257.86645833 -.00015505  00000+0 -12979-2 0  2579
2 55915  70.0018 187.5237 0003006 262.9251  66.2634 14.98382045    14

Volg STARLINK-5859 in realtime met AllMySat

Download on the App Store